Regional Weather Roundup
Issued by NWS

Home | Current Version | Previous Version | Graphics & Text | Print | Product List | Glossary On
Versions: 1 2 3 4 5 6 7 8 9 10 11 12 13 14 15 16 17 18 19 20 21 22 23 24 25 26 27 28 29 30 31 32 33 34 35 36 37 38 39 40 41 42 43 44 45 46 47 48 49 50
000
ASUS43 KDMX 010307
RWRIA

WEATHER ROUNDUP FOR IOWA
NATIONAL WEATHER SERVICE DES MOINES IA
1000 PM CDT FRI JUL 31 2015

NOTE: "FAIR" INDICATES FEW OR NO CLOUDS BELOW 12,000 FEET WITH NO
SIGNIFICANT WEATHER AND/OR OBSTRUCTIONS TO VISIBILITY.

* - THESE STATIONS ARE NOT NWS STATIONS...THUS NOT UNDER NWS
QUALITY CONTROL.  THEY ALSO DO NOT REPORT WEATHER SUCH
AS PRECIPITATION OR FOG.

IAZ001>003-012>014-020>022-031>034-043>046-010400-
   NORTHWEST IOWA

CITY           SKY/WX    TMP DP  RH WIND       PRES   REMARKS
CARROLL *      CLOUDY    70  66  88 CALM      30.07R
CHEROKEE *     CLEAR     68  64  88 CALM      30.08R
DENISON *      PTCLDY    72  68  88 SE3       30.05R
LE MARS *      CLEAR     70  68  94 CALM      30.07R
ORANGE CITY *  CLEAR     73  63  68 CALM      30.07S
SHELDON *      CLEAR     64  63  94 CALM      30.06S
SIOUX CITY     CLEAR     76  67  73 E5        30.05R
SPENCER        CLEAR     69  62  78 S7        30.07R
STORM LAKE *   CLEAR     68  61  77 E5        30.09R
$$

IAZ055>058-069>071-079>083-090>094-010400-
   SOUTHWEST IOWA

CITY           SKY/WX    TMP DP  RH WIND       PRES   REMARKS
ATLANTIC *     CLEAR     77  73  88 CALM      30.06R
AUDUBON *      CLEAR     72  66  83 CALM      30.08R
CLARINDA *     MOCLDY    73  70  88 SW8       30.10R
COUNCIL BLFS *   N/A     77  66  69 SW9       30.06R
CRESTON *      CLEAR     70  66  88 NE5       30.08S
HARLAN  *      PTCLDY    75  75 100 CALM      30.10R
LAMONI         PTCLDY    72  66  81 CALM      30.07R
RED OAK *      PTCLDY    70  66  88 W5        30.06F
SHENANDOAH *     N/A     73  70  88 E8        30.06F
$$

IAZ047>049-059>061-072>074-084-010400-
   CENTRAL IOWA

CITY           SKY/WX    TMP DP  RH WIND       PRES   REMARKS
AMES           CLEAR     68  64  87 CALM      30.05R
ANKENY *       CLEAR     68  64  88 CALM      30.06R
CHARITON *     PTCLDY    73  70  88 CALM      30.07R
DES MOINES     PTCLDY    79  62  56 E6        30.05R HX  80
GRINNELL*      CLEAR     70  61  73 CALM      30.07R
KNOXVILLE *    PTCLDY    77  66  69 CALM      30.05R
MARSHALLTOWN   CLEAR     68  63  84 W5        30.05R
PELLA *        PTCLDY    73  70  88 CALM      30.07R
PERRY *          N/A     72  68  88 CALM      30.06R
$$

IAZ004>006-015-016-023>025-035-036-010400-
   NORTH CENTRAL IOWA

CITY           SKY/WX    TMP DP  RH WIND       PRES   REMARKS
ALGONA *       CLEAR     68  63  83 CALM      30.07R
CLARION *      CLEAR     64  61  88 CALM      30.06S
ESTHERVILLE    CLEAR     67  60  78 S6        30.06R
FORT DODGE *   CLEAR     66  61  82 CALM      30.07R
MASON CITY     CLEAR     65  60  84 W5        30.07R
FOREST CITY *  CLEAR     63  63 100 CALM      30.06R
IOWA FALLS *     N/A     66  61  82 SW3       30.08R
$$

IAZ007>011-017>019-026>030-037>042-050>054-066-010400-
   NORTHEAST IOWA

CITY           SKY/WX    TMP DP  RH WIND       PRES   REMARKS
CEDAR RAPIDS   CLEAR     66  63  90 CALM      30.04R
CHARLES CITY * CLEAR     66  63  88 W6        30.06R
CLINTON *      CLEAR     63  57  82 W7        30.04R
DECORAH *      CLEAR     68  57  68 CALM      30.03R
DUBUQUE        CLEAR     67  57  70 NW7       30.03R
MONTICELLO *   CLEAR     63  61  94 CALM      30.03R
OELWEIN *        N/A     66  61  82 W6        30.05R
WATERLOO       CLEAR     67  61  81 CALM      30.03R
$$

IAZ064-065-067-068-078-010400-
   EAST CENTRAL IOWA

CITY           SKY/WX    TMP DP  RH WIND       PRES   REMARKS
DAVENPORT      CLEAR     65  60  84 W6        30.03R
IOWA CITY      CLEAR     69  61  75 W5        30.05R
MT. PLEASANT * CLEAR     73  63  68 N5        30.05R
MUSCATINE *    CLEAR     70  61  73 NW6       30.04R
QUAD CITIES    CLEAR     70  58  65 W6        30.02R
$$

IAZ062-063-075>077-085>089-095>099-010400-
   SOUTHEAST IOWA

CITY           SKY/WX    TMP DP  RH WIND       PRES   REMARKS
BURLINGTON     MOCLDY    75  63  66 N8        30.04R
FAIRFIELD *    PTCLDY    72  66  83 NE6       30.05S
FORT MADISON * CLEAR     73  64  73 N5        30.05R
KEOKUK *       MOCLDY    77  66  69 CALM      30.03R
OSKALOOSA *      N/A     72  66  83 NE5       30.06R
CENTERVILLE *  PTCLDY    73  72  94 NE3       30.08R
OTTUMWA        CLEAR     74  67  78 NE7       30.04R
WASHINGTON *   CLEAR     70  63  78 N5        30.06S
$$

ABBREVIATIONS USED IN REMARKS
   TC - TEMPERATURES IN CELSIUS
  WCI - WIND CHILL INDEX
   HX - HEAT INDEX
  VSB - VISIBILITY
$$




USA.gov is the U.S. government's official web portal to all federal, state and local government web resources and services.